Weather History for Mount Pleasant, IA

Change the Weather History Date:

Friday, April 12, 2013

  Actual Average Record
Temperature  
Mean Temperature 44 °F -  
Max Temperature 47 °F 61 °F 86 °F (1971)
Min Temperature 40 °F 39 °F 21 °F (1957)
Degree Days  
Heating Degree Days 22    
Moisture  
Dew Point 31 °F    
Average Humidity 61    
Maximum Humidity 73    
Minimum Humidity 51    
Precipitation  
Precipitation 0.00 in - - ()
Sea Level Pressure  
Sea Level Pressure 29.77 in    
Wind  
Wind Speed 13 mph (West)    
Max Wind Speed 21 mph    
Max Gust Speed 29 mph    
Visibility 10 miles    
Events      
Averages and records for this station are not official NWS values.
T = Trace of Precipitation, MM = Missing Value Source: NWS Daily Summary

Daily Weather History Graph

Daily Weather History Graph

Search for Another Location

Airport:

Trip Planner

Search our weather history database for the weather conditions in past years. The results will help you decide how hot, cold, wet, or windy it might be!

Date:

Astronomy

Apr. 12, 2013 Rise Set
Actual Time 6:31 AM CDT 7:42 PM CDT
Civil Twilight 6:02 AM CDT 8:11 PM CDT
Nautical Twilight 5:29 AM CDT 8:45 PM CDT
Astronomical Twilight 4:53 AM CDT 9:20 PM CDT
Moon 7:40 AM CDT (4/12) 10:15 PM CDT (4/12)
Length of Visible Light 14h 08m
Length of Day
13h 11m
Waxing Crescent, 5% of the Moon is Illuminated
Apr 12
Waxing Crescent
Apr 18
First Quarter
Apr 25
Full
May 2
Last Quarter
May 9
New

Hourly Weather History & Observations

Time (CDT) Temp. Windchill Dew Point Humidity Pressure Visibility Wind Dir Wind Speed Gust Speed Precip Events Conditions
12:15 AM 41.0 °F 35.2 °F 30.9 °F 67% 29.65 in 10.0 mi SW 9.2 mph - N/A   Overcast
12:35 AM 41.0 °F 34.7 °F 31.1 °F 68% 29.65 in 10.0 mi SW 10.4 mph - N/A   Overcast
12:55 AM 41.2 °F 35.0 °F 31.1 °F 67% 29.65 in 10.0 mi SW 10.4 mph - N/A   Overcast
1:15 AM 41.2 °F 35.5 °F 31.1 °F 67% 29.65 in 10.0 mi SW 9.2 mph - N/A   Overcast
1:35 AM 41.2 °F 36.0 °F 31.6 °F 69% 29.65 in 10.0 mi SW 8.1 mph - N/A   Overcast
1:55 AM 41.4 °F 35.2 °F 31.8 °F 69% 29.65 in 10.0 mi SW 10.4 mph - N/A   Overcast
2:15 AM 41.4 °F 35.2 °F 32.0 °F 69% 29.64 in 10.0 mi SW 10.4 mph - N/A   Overcast
2:35 AM 41.5 °F 33.8 °F 32.0 °F 69% 29.63 in 10.0 mi WSW 15.0 mph - N/A   Overcast
2:55 AM 41.4 °F 34.0 °F 32.0 °F 69% 29.63 in 10.0 mi SW 13.8 mph - N/A   Overcast
3:15 AM 41.0 °F 33.1 °F 32.9 °F 73% 29.63 in 10.0 mi SW 15.0 mph - N/A   Overcast
3:35 AM 41.2 °F 33.4 °F 33.1 °F 73% 29.63 in 10.0 mi SW 15.0 mph 20.7 mph N/A   Overcast
3:55 AM 41.2 °F 34.1 °F 33.1 °F 73% 29.63 in 10.0 mi SW 12.7 mph - N/A   Overcast
4:15 AM 41.4 °F 34.7 °F 33.3 °F 73% 29.63 in 10.0 mi WSW 11.5 mph - N/A   Overcast
4:35 AM 41.9 °F 35.0 °F 32.7 °F 70% 29.63 in 10.0 mi WSW 12.7 mph 18.4 mph N/A   Overcast
4:55 AM 41.5 °F 33.2 °F 32.5 °F 70% 29.63 in 10.0 mi WSW 17.3 mph 20.7 mph N/A   Overcast
5:15 AM 41.5 °F 34.2 °F 31.8 °F 68% 29.63 in 10.0 mi West 13.8 mph 20.7 mph N/A   Overcast
5:35 AM 41.4 °F 33.0 °F 31.8 °F 69% 29.63 in 10.0 mi West 17.3 mph 20.7 mph N/A   Overcast
5:55 AM 41.2 °F 33.4 °F 32.0 °F 70% 29.63 in 10.0 mi West 15.0 mph 19.6 mph N/A   Overcast
6:15 AM 40.6 °F 33.4 °F 32.0 °F 71% 29.64 in 10.0 mi WSW 12.7 mph - N/A   Overcast
6:35 AM 40.6 °F 33.4 °F 32.0 °F 71% 29.64 in 10.0 mi WSW 12.7 mph 19.6 mph N/A   Overcast
6:55 AM 41.0 °F 33.1 °F 32.0 °F 70% 29.65 in 10.0 mi WSW 15.0 mph - N/A   Overcast
7:15 AM 40.8 °F 33.3 °F 32.2 °F 71% 29.65 in 10.0 mi WSW 13.8 mph 20.7 mph N/A   Overcast
7:35 AM 41.0 °F 32.5 °F 32.9 °F 73% 29.67 in 10.0 mi WSW 17.3 mph 21.9 mph N/A   Overcast
7:55 AM 41.2 °F 33.4 °F 32.9 °F 72% 29.67 in 10.0 mi WSW 15.0 mph 20.7 mph N/A   Overcast
8:15 AM 41.4 °F 34.3 °F 33.1 °F 72% 29.67 in 10.0 mi West 12.7 mph 23.0 mph N/A   Overcast
8:35 AM 41.9 °F 34.3 °F 33.6 °F 72% 29.68 in 10.0 mi West 15.0 mph 21.9 mph N/A   Overcast
8:55 AM 42.3 °F 35.5 °F 33.4 °F 71% 29.69 in 10.0 mi West 12.7 mph - N/A   Overcast
9:15 AM 42.8 °F 35.4 °F 33.3 °F 69% 29.69 in 10.0 mi West 15.0 mph 20.7 mph N/A   Overcast
9:55 AM 43.7 °F 36.3 °F 31.3 °F 62% 29.71 in 10.0 mi West 16.1 mph 28.8 mph N/A   Overcast
10:15 AM 43.7 °F 35.7 °F 31.3 °F 62% 29.72 in 10.0 mi WNW 18.4 mph 24.2 mph N/A   Overcast
10:35 AM 43.7 °F 37.7 °F 31.6 °F 63% 29.73 in 10.0 mi West 11.5 mph 24.2 mph N/A   Overcast
10:55 AM 43.2 °F 36.2 °F 31.1 °F 62% 29.74 in 10.0 mi West 13.8 mph 19.6 mph N/A   Overcast
11:15 AM 43.7 °F 35.7 °F 30.6 °F 60% 29.75 in 10.0 mi WNW 18.4 mph 25.3 mph N/A   Overcast
11:35 AM 45.0 °F 37.9 °F 31.1 °F 58% 29.75 in 10.0 mi WNW 16.1 mph 20.7 mph N/A   Overcast
11:55 AM 43.9 °F 36.8 °F 31.5 °F 62% 29.77 in 10.0 mi West 15.0 mph 25.3 mph N/A   Overcast
12:15 PM 45.0 °F 37.9 °F 31.1 °F 58% 29.78 in 10.0 mi West 16.1 mph 26.5 mph N/A   Overcast
12:35 PM 45.5 °F 38.6 °F 29.3 °F 53% 29.78 in 10.0 mi WNW 16.1 mph 25.3 mph N/A   Overcast
12:55 PM 45.1 °F 38.1 °F 29.8 °F 55% 29.78 in 10.0 mi West 16.1 mph 26.5 mph N/A   Overcast
1:15 PM 45.0 °F 38.5 °F 29.8 °F 55% 29.79 in 10.0 mi West 13.8 mph 23.0 mph N/A   Overcast
1:35 PM 45.3 °F 38.1 °F 30.0 °F 55% 29.80 in 10.0 mi West 17.3 mph 26.5 mph N/A   Overcast
1:55 PM 45.0 °F 37.6 °F 30.4 °F 57% 29.81 in 10.0 mi WNW 17.3 mph 26.5 mph N/A   Overcast
2:15 PM 46.6 °F - 30.2 °F 53% 29.82 in 10.0 mi West 13.8 mph 23.0 mph N/A   Overcast
2:35 PM 46.0 °F 38.3 °F 30.0 °F 54% 29.83 in 10.0 mi West 20.7 mph 26.5 mph N/A   Overcast
2:55 PM 46.4 °F 40.1 °F 30.2 °F 53% 29.84 in 10.0 mi West 15.0 mph 24.2 mph N/A   Overcast
3:15 PM 45.7 °F 39.8 °F 30.9 °F 56% 29.84 in 10.0 mi West 12.7 mph 21.9 mph N/A   Overcast
3:35 PM 46.0 °F 40.2 °F 31.5 °F 57% 29.85 in 10.0 mi West 12.7 mph - N/A   Overcast
3:55 PM 46.4 °F 39.8 °F 31.1 °F 55% 29.85 in 10.0 mi West 16.1 mph 23.0 mph N/A   Overcast
4:15 PM 47.3 °F - 30.0 °F 51% 29.85 in 10.0 mi West 19.6 mph 25.3 mph N/A   Overcast
4:35 PM 46.8 °F - 29.5 °F 51% 29.85 in 10.0 mi West 16.1 mph 25.3 mph N/A   Overcast
4:55 PM 46.9 °F - 29.5 °F 51% 29.86 in 10.0 mi West 15.0 mph 21.9 mph N/A   Overcast
5:15 PM 46.4 °F 41.1 °F 29.8 °F 53% 29.87 in 10.0 mi West 11.5 mph 17.3 mph N/A   Overcast
5:35 PM 47.3 °F - 30.7 °F 53% 29.87 in 10.0 mi WSW 17.3 mph 21.9 mph N/A   Overcast
5:55 PM 46.8 °F - 30.7 °F 54% 29.87 in 10.0 mi West 12.7 mph 19.6 mph N/A   Mostly Cloudy
6:15 PM 46.4 °F 40.4 °F 29.5 °F 52% 29.87 in 10.0 mi WSW 13.8 mph 24.2 mph N/A   Overcast
6:35 PM 46.0 °F 39.3 °F 30.0 °F 54% 29.88 in 10.0 mi West 16.1 mph - N/A   Overcast
6:55 PM 45.7 °F 39.1 °F 28.9 °F 52% 29.88 in 10.0 mi West 15.0 mph 26.5 mph N/A   Overcast
7:15 PM 45.1 °F 38.4 °F 28.6 °F 52% 29.88 in 10.0 mi West 15.0 mph 25.3 mph N/A   Overcast
7:35 PM 44.8 °F 39.0 °F 28.8 °F 53% 29.89 in 10.0 mi West 11.5 mph - N/A   Overcast
7:55 PM 44.6 °F 39.2 °F 28.6 °F 53% 29.89 in 10.0 mi West 10.4 mph 19.6 mph N/A   Overcast
8:15 PM 44.6 °F 39.7 °F 28.4 °F 53% 29.90 in 10.0 mi West 9.2 mph 16.1 mph N/A   Overcast
8:35 PM 44.2 °F 39.7 °F 29.8 °F 57% 29.90 in 10.0 mi West 8.1 mph - N/A   Overcast
8:55 PM 44.1 °F 38.1 °F 30.0 °F 58% 29.91 in 10.0 mi West 11.5 mph - N/A   Overcast
9:15 PM 44.1 °F 38.1 °F 28.8 °F 55% 29.92 in 10.0 mi West 11.5 mph 20.7 mph N/A   Overcast
9:35 PM 43.9 °F 36.8 °F 27.9 °F 53% 29.92 in 10.0 mi West 15.0 mph - N/A   Overcast
9:55 PM 43.7 °F 37.7 °F 28.6 °F 55% 29.93 in 10.0 mi West 11.5 mph - N/A   Overcast
10:15 PM 43.7 °F 38.1 °F 28.6 °F 55% 29.93 in 10.0 mi West 10.4 mph 16.1 mph N/A   Overcast
10:35 PM 43.7 °F 38.6 °F 28.9 °F 56% 29.93 in 10.0 mi West 9.2 mph - N/A   Overcast
10:55 PM 43.2 °F 39.0 °F 29.8 °F 59% 29.93 in 10.0 mi WSW 6.9 mph - N/A   Overcast
11:15 PM 43.2 °F 38.4 °F 30.0 °F 60% 29.93 in 10.0 mi WSW 8.1 mph - N/A   Overcast
11:35 PM 43.2 °F 37.9 °F 29.1 °F 58% 29.93 in 10.0 mi West 9.2 mph - N/A   Overcast
11:55 PM 43.2 °F 37.0 °F 28.6 °F 56% 29.94 in 10.0 mi WNW 11.5 mph 16.1 mph N/A   Overcast